Nashua, NH

7:08 AM EDT on May 24, 2017 (GMT -0400)
Boire

Weather History for KASH - April, 2014

Change the Weather History Date:

Sunday, April 6, 2014

  Actual Average Record
Temperature  
Mean Temperature 44 °F -  
Max Temperature 56 °F 52 °F 78 °F (1991)
Min Temperature 34 °F 30 °F 16 °F (2016)
Degree Days  
Heating Degree Days 20    
Moisture  
Dew Point 20 °F    
Average Humidity 43    
Maximum Humidity 67    
Minimum Humidity 21    
Precipitation  
Precipitation 0.00 in - - ()
Sea Level Pressure  
Sea Level Pressure 30.83 in    
Wind  
Wind Speed 9 mph (NW)    
Max Wind Speed 16 mph    
Max Gust Speed 22 mph    
Visibility 10 miles    
Events      
Averages and records for this station are not official NWS values.
T = Trace of Precipitation, MM = Missing Value Source: NWS Daily Summary

Daily Weather History Graph

Daily Weather History Graph

Search for Another Location

Airport or City:

Trip Planner

Search our weather history database for the weather conditions in past years. The results will help you decide how hot, cold, wet, or windy it might be!

Date:

Astronomy

Apr. 06, 2014 Rise Set
Actual Time 6:19 AM EDT 7:17 PM EDT
Civil Twilight 5:50 AM EDT 7:46 PM EDT
Nautical Twilight 5:16 AM EDT 8:21 PM EDT
Astronomical Twilight 4:40 AM EDT 8:57 PM EDT
Moon 11:13 AM EDT (4/6) 1:16 AM EDT (4/6)
Length of Visible Light 13h 55m
Length of Day
12h 58m
Waxing Crescent, 43% of the Moon is Illuminated
Apr 6
Waxing Crescent
Apr 7
First Quarter
Apr 15
Full
Apr 22
Last Quarter
Apr 29
New

Hourly Weather History & Observations

Time (EDT) Temp. Windchill Dew Point Humidity Pressure Visibility Wind Dir Wind Speed Gust Speed Precip Events Conditions
12:51 AM 37.9 °F 31.5 °F 22.1 °F 53% 30.69 in 10.0 mi NW 9.2 mph - N/A   Overcast
1:51 AM 37.9 °F 30.0 °F 21.0 °F 51% 30.70 in 10.0 mi NW 12.7 mph 18.4 mph N/A   Overcast
2:51 AM 36.9 °F 27.5 °F 21.0 °F 53% 30.71 in 10.0 mi NW 16.1 mph 21.9 mph N/A   Partly Cloudy
3:51 AM 36.0 °F 30.3 °F 20.1 °F 53% 30.73 in 10.0 mi Variable 6.9 mph - N/A   Clear
4:51 AM 34.9 °F 27.7 °F 20.1 °F 55% 30.75 in 10.0 mi NW 9.2 mph - N/A   Clear
5:51 AM 34.0 °F 28.8 °F 20.1 °F 57% 30.78 in 10.0 mi WNW 5.8 mph - N/A   Clear
6:51 AM 34.9 °F 28.3 °F 20.1 °F 55% 30.82 in 10.0 mi NW 8.1 mph - N/A   Clear
8:51 AM 38.8 °F 31.2 °F 20.1 °F 47% 30.85 in 10.0 mi NNW 12.7 mph 19.6 mph N/A   Clear
9:51 AM 39.9 °F 32.5 °F 19.0 °F 43% 30.87 in 10.0 mi NW 12.7 mph 18.4 mph N/A   Clear
10:51 AM 43.0 °F 36.4 °F 18.1 °F 37% 30.87 in 10.0 mi NW 12.7 mph 21.9 mph N/A   Clear
11:51 AM 45.9 °F 42.3 °F 19.0 °F 34% 30.85 in 10.0 mi Variable 6.9 mph - N/A   Clear
12:51 PM 48.9 °F - 17.1 °F 28% 30.84 in 10.0 mi NNW 9.2 mph 19.6 mph N/A   Clear
1:51 PM 50.9 °F - 15.1 °F 24% 30.84 in 10.0 mi WNW 10.4 mph 19.6 mph N/A   Clear
2:51 PM 54.0 °F - 14.0 °F 21% 30.83 in 10.0 mi NW 9.2 mph 17.3 mph N/A   Clear
4:51 PM 55.9 °F - 17.1 °F 22% 30.83 in 10.0 mi North 8.1 mph 16.1 mph N/A   Clear
5:51 PM 55.9 °F - 18.1 °F 23% 30.84 in 10.0 mi NNW 13.8 mph 21.9 mph N/A   Clear
6:51 PM 54.0 °F - 19.0 °F 25% 30.85 in 10.0 mi WNW 4.6 mph - N/A   Clear
7:51 PM 48.9 °F - 23.0 °F 36% 30.87 in 10.0 mi Calm Calm - N/A   Clear
8:51 PM 41.9 °F - 26.1 °F 53% 30.89 in 10.0 mi Calm Calm - N/A   Clear
9:51 PM 41.0 °F - 23.0 °F 49% 30.92 in 10.0 mi Calm Calm - N/A   Clear
10:51 PM 37.9 °F - 26.1 °F 62% 30.93 in 10.0 mi Calm Calm - N/A   Clear
11:51 PM 36.0 °F - 26.1 °F 67% 30.94 in 10.0 mi Calm Calm - N/A   Clear